カタログに戻る

GOES 8

運用中気象GEO
NORAD 23051·PAYLOAD·🇺🇸 United States

打ち上げ Apr 13, 1994 から Cape Canaveral Space Force Station

Loading…

TLE

最新Source: Space-Track

元期: Sep 14, 2026, 05:44 UTC

1 23051U 94022A   26257.23941301 -.00000156  00000-0  00000-0 0  9996
2 23051  14.5043  12.9796 0003634  70.9579 289.4500  0.98904891125001

AllMySatでGOES 8をリアルタイム追跡

Download on the App Store